Location: Newark
(38.7000°N, 9.1833°W)
Time: 03:14:02
(UTC+00:00)

Envisat - Pass Details

Date: 28 October 2019
Orbit: 764 x 766 km, 98.1° (Epoch: 21 November)

Event Time Altitude Azimuth Distance (km) Brightness Sun altitude
Rises 19:10:04 0° 182° (S) 3,217 6.3 -17.8°
Reaches altitude 10° 19:12:27 10° 188° (S) 2,295 5.6 -18.3°
Maximum altitude 19:17:17 45° 261° (W) 1,030 4.1 -19.2°
Drops below altitude 10° 19:22:10 10° 334° (NNW) 2,310 5.8 -20.2°
Sets 19:24:35 0° 341° (NNW) 3,240 6.5 -20.6°
